Snowfall_Accumulation
0.0 0.0 0.0 0.0 0.0 0.0 0.0 0.0 0.0 0.0 0.0 0.0 0.0 0.0 0.0 0.0 0.0 0.0 0.0 0.0 0.0 0.0 0.0 0.0 0.0 0.0 0.0 0.0 0.0 0.0 0.0 0.0 0.0 0.0 0.0 0.0 0.0 0.0 0.0 0.0 0.0 0.0 0.0
0.0 0.0 0.0 0.0 0.0 0.0 0.0 0.0 0.0 0.0 0.0 0.0 0.0 0.0 0.0 0.0 0.0 0.0 0.0 0.0 0.0 0.0 0.0 0.0 0.0 0.0 0.0 0.0 0.0 0.0 0.0 0.0 0.0 0.0 0.0 0.0 0.0 0.0 0.0 0.0 0.0 0.0 0.0
0.0 0.0 0.0 0.0 0.0 0.0 0.0 0.0 0.0 0.0 0.0 0.0 0.0 0.0 0.0 0.0 0.0 0.0 0.0 0.0 0.0 0.0 0.0 0.0 0.0 0.0 0.0 0.0 0.0 0.0 0.0 0.0 0.0 0.0 0.0 0.0 0.0 0.0 0.0 0.0 0.0 0.0 0.0
0.0 0.0 0.0 0.0 0.0 0.0 0.0 0.0 0.0 0.0 0.0 0.0 0.0 0.0 0.0 0.0 0.0 0.0 0.0 0.0 0.0 0.0 0.0 0.0 0.0 0.0 0.0 0.0 0.0 0.0 0.0 0.0 0.0 0.0 0.0 0.0 0.0 0.0 0.0 0.0 0.0 0.0 0.0
0.0 0.0 0.0 0.0 0.0 0.0 0.0 0.0 0.0 0.0 0.0 0.0 0.0 0.0 0.0 0.0 0.0 0.0 0.0 0.0 0.0 0.0 0.0 0.0 0.0 nan nan nan 0.0 0.0 0.0 0.0 0.0 0.0 0.0 0.0 0.0 0.0 0.0 0.0 0.0 0.0 0.0
0.0 0.0 0.0 0.0 0.0 0.0 0.0 0.0 0.0 0.0 0.0 0.0 0.0 0.0 0.0 0.0 nan nan 0.0 0.0 0.0 0.0 0.0 0.0 0.0 0.0 0.0 nan nan nan nan 0.0 0.0 0.0 0.0 0.0 0.0 0.0 0.0 0.0 0.0 0.0 0.2
0.0 0.0 0.0 0.0 0.0 0.0 0.0 0.0 0.0 0.0 0.0 0.0 0.0 0.0 0.0 0.0 nan nan nan 0.0 0.0 0.0 0.0 0.0 0.0 0.0 nan 0.0 nan nan nan nan 0.0 0.0 0.0 0.0 0.0 0.0 0.0 0.1 0.1 0.3 0.9
0.0 0.0 0.0 0.0 0.0 0.0 0.0 0.0 0.0 0.0 0.0 0.0 0.0 0.0 0.0 0.0 nan nan nan 0.0 0.0 0.0 0.0 0.0 0.0 0.0 0.0 0.0 0.0 0.1 0.2 0.1 0.1 0.0 0.0 0.1 0.1 0.1 0.1 0.1 0.1 1.5 2.5
0.0 0.0 0.0 0.0 0.0 0.0 0.0 0.0 0.0 0.0 0.0 0.0 0.0 0.0 0.0 0.0 nan nan 0.0 0.0 0.0 0.0 0.0 0.0 0.0 0.0 nan nan 0.0 0.3 1.0 1.5 nan nan nan nan nan nan nan 0.4 1.1 1.2 3.7
0.8 0.2 0.0 0.0 0.0 0.0 0.0 0.0 0.0 0.0 0.0 0.0 0.0 0.0 nan 0.0 nan nan nan 0.0 0.1 0.3 0.1 0.1 nan 0.0 nan nan 0.1 0.1 0.7 1.4 1.4 1.2 1.2 1.3 nan nan nan 0.6 0.8 2.0 4.4
2.1 0.9 0.6 0.2 0.1 0.0 0.0 0.0 0.0 0.0 0.0 0.0 0.0 0.0 0.0 0.0 0.0 nan nan 0.1 0.3 0.5 0.7 0.9 0.9 nan nan nan nan 0.3 1.4 2.8 4.4 3.5 3.3 3.5 3.3 3.1 3.5 3.4 3.2 2.4 4.3
3.8 3.8 3.2 3.1 1.9 0.5 0.7 0.8 0.2 0.1 0.3 0.8 1.5 1.6 1.6 0.4 nan nan nan nan nan 1.2 4.7 4.4 4.1 nan nan nan 4.5 nan nan 3.0 6.3 7.2 7.6 8.5 8.7 8.4 6.5 5.2 4.8 4.3 3.2
4.1 6.1 6.3 5.6 6.9 4.1 3.8 3.8 4.2 2.4 2.9 3.9 5.3 6.4 6.4 4.2 4.5 nan nan nan nan 4.7 5.6 7.9 nan nan nan 1.7 nan nan 3.8 9.6 11.9 14.6 13.6 12.2 8.8 5.9 3.7 3.2 2.1 1.5 1.8
3.0 3.5 5.0 7.1 7.1 7.4 6.9 7.5 7.4 8.0 8.6 9.5 9.6 11.9 10.4 10.8 7.2 6.9 8.6 9.4 nan 9.9 3.7 11.8 4.4 8.2 3.9 6.2 9.2 11.1 10.1 10.5 10.5 9.5 7.5 5.6 4.0 2.9 3.1 2.2 3.4 2.6 3.2
1.4 1.7 2.2 3.1 5.9 7.4 9.2 11.3 10.8 11.2 12.0 13.8 12.8 12.3 15.8 17.7 17.0 13.5 11.2 11.3 11.5 8.8 8.6 12.8 11.8 10.3 9.8 8.4 7.9 7.1 5.3 4.1 4.7 4.7 4.5 3.3 2.7 2.3 2.7 1.5 1.8 1.8 3.0
0.8 1.4 2.3 2.2 3.7 5.5 7.6 9.4 nan nan nan nan nan 9.6 17.2 nan nan nan nan nan nan nan 9.3 10.0 13.0 12.2 9.0 7.0 6.4 5.5 4.6 4.3 3.8 3.5 4.2 3.1 3.5 4.1 3.8 3.4 3.3 3.8 4.0
2.1 1.7 2.6 2.6 4.1 5.3 6.4 7.8 13.5 17.2 nan nan nan nan nan nan nan nan nan nan nan nan 13.8 13.7 16.5 16.4 10.2 5.1 5.0 4.9 5.7 5.1 3.6 5.1 5.8 6.9 7.1 5.9 5.9 4.8 5.0 3.9 3.3
6.8 1.3 6.2 7.8 8.7 10.2 11.5 13.7 13.7 15.7 17.7 17.5 nan nan nan nan nan nan nan nan 12.8 nan 10.6 12.3 13.2 10.9 7.8 7.1 7.4 6.4 5.7 6.9 6.8 5.7 6.5 8.2 9.1 6.5 6.0 4.2 3.6 5.7 3.1
3.0 5.3 6.0 6.4 5.8 5.1 5.3 6.1 6.6 7.3 9.9 11.4 9.4 5.2 5.3 nan nan nan nan 7.5 10.3 9.8 9.7 9.4 10.1 8.1 7.8 6.5 11.2 11.6 13.2 11.3 11.0 13.4 7.5 7.8 15.5 4.4 5.0 3.4 3.7 2.8 2.5
3.4 2.0 2.9 4.4 4.5 4.3 3.9 4.1 3.9 4.3 4.1 5.2 5.7 7.6 5.0 3.1 10.4 17.0 12.0 17.6 14.1 7.7 7.8 5.9 5.7 5.3 6.9 5.9 11.1 16.8 14.2 13.3 9.5 7.0 13.5 18.3 15.8 6.8 6.9 5.8 7.1 6.4 2.2
4.2 4.1 1.2 2.9 3.0 2.8 3.4 3.5 3.2 4.1 4.8 4.0 7.0 9.6 2.2 4.1 7.7 8.1 7.4 9.7 8.1 6.9 10.3 5.1 6.8 7.9 6.9 7.9 4.3 9.3 4.2 17.7 7.3 7.0 6.4 6.6 29.6 10.9 4.6 4.7 5.4 3.8 2.7
2.6 2.5 2.4 3.5 2.8 4.3 3.3 2.3 3.5 3.0 2.9 3.9 5.5 4.9 4.2 9.7 6.3 6.3 6.0 9.9 15.7 7.0 5.9 7.2 6.0 5.4 5.4 5.8 6.3 17.9 13.3 17.4 13.5 9.9 8.2 8.3 6.0 6.3 5.4 5.8 7.1 7.4 4.6
2.7 4.1 2.8 2.4 2.7 5.9 6.3 2.8 5.3 6.7 5.1 7.0 4.4 4.9 5.3 9.0 9.5 6.6 8.7 14.1 7.2 9.1 8.0 6.8 12.2 7.2 7.3 10.0 9.6 7.2 11.0 9.2 9.7 11.1 12.3 11.1 6.0 6.8 11.2 7.8 6.3 8.4 9.7
2.8 5.4 3.1 5.3 6.7 3.3 8.9 12.8 8.6 7.1 7.3 8.8 15.3 12.0 9.6 9.8 18.7 14.5 15.3 18.0 11.7 16.3 16.4 16.2 7.1 5.8 5.9 17.0 12.0 9.5 6.1 11.0 7.9 8.7 10.0 12.5 7.3 5.1 8.6 7.1 6.6 9.3 10.8
5.5 8.2 8.6 5.9 6.1 12.4 16.4 13.1 13.5 14.4 13.4 15.8 18.7 14.6 5.4 10.9 8.6 19.8 17.1 12.4 11.0 16.9 9.3 11.6 10.3 7.6 8.9 7.6 7.1 3.8 5.5 4.6 9.5 5.3 11.1 7.6 9.0 8.8 9.6 9.1 11.4 7.6 8.8
3.5 4.1 6.5 6.6 7.7 11.5 12.8 19.0 20.1 17.4 16.9 18.5 18.0 18.6 13.7 9.8 8.8 16.9 12.5 12.1 10.7 10.2 9.1 9.8 8.8 7.7 7.1 7.3 5.3 5.7 5.4 5.0 13.8 5.3 16.0 8.5 11.5 10.6 10.2 9.2 7.9 10.9 6.8
Water_Equivalent
0.00 0.00 0.00 0.00 0.00 0.00 0.00 0.00 0.00 0.00 0.00 0.00 0.00 0.00 0.00 0.00 0.00 0.00 0.00 0.00 0.00 0.00 0.00 0.00 0.00 0.00 0.00 0.00 0.00 0.00 0.00 0.00 0.00 0.00 0.00 0.00 0.00 0.00 0.00 0.00 0.00 0.00 0.00
0.00 0.00 0.00 0.00 0.00 0.00 0.00 0.00 0.00 0.00 0.00 0.00 0.00 0.00 0.00 0.00 0.00 0.00 0.00 0.00 0.00 0.00 0.00 0.00 0.00 0.00 0.00 0.00 0.00 0.00 0.00 0.00 0.00 0.00 0.00 0.00 0.00 0.00 0.00 0.00 0.00 0.00 0.00
0.00 0.00 0.00 0.00 0.00 0.00 0.00 0.00 0.00 0.00 0.00 0.00 0.00 0.00 0.00 0.00 0.00 0.00 0.00 0.00 0.00 0.00 0.00 0.00 0.00 0.00 0.00 0.00 0.00 0.00 0.00 0.00 0.00 0.00 0.00 0.00 0.00 0.00 0.00 0.00 0.00 0.00 0.00
0.00 0.00 0.00 0.00 0.00 0.00 0.00 0.00 0.00 0.00 0.00 0.00 0.00 0.00 0.00 0.00 0.00 0.00 0.00 0.00 0.00 0.00 0.00 0.00 0.00 0.00 0.00 0.00 0.00 0.00 0.00 0.00 0.00 0.00 0.00 0.00 0.00 0.00 0.00 0.00 0.00 0.00 0.00
0.00 0.00 0.00 0.00 0.00 0.00 0.00 0.00 0.00 0.00 0.00 0.00 0.00 0.00 0.00 0.00 0.00 0.00 0.00 0.00 0.00 0.00 0.00 0.00 0.00 nan nan nan 0.00 0.00 0.00 0.00 0.00 0.00 0.00 0.00 0.00 0.00 0.00 0.00 0.00 0.00 0.00
0.00 0.00 0.00 0.00 0.00 0.00 0.00 0.00 0.00 0.00 0.00 0.00 0.00 0.00 0.00 0.00 nan nan 0.00 0.00 0.00 0.00 0.00 0.00 0.00 0.00 0.00 nan nan nan nan 0.00 0.00 0.00 0.00 0.00 0.00 0.00 0.00 0.00 0.00 0.00 0.08
0.00 0.00 0.00 0.00 0.00 0.00 0.00 0.00 0.00 0.00 0.00 0.00 0.00 0.00 0.00 0.00 nan nan nan 0.00 0.00 0.00 0.00 0.00 0.00 0.00 nan 0.00 nan nan nan nan 0.00 0.00 0.00 0.00 0.02 0.00 0.01 0.02 0.03 0.11 0.22
0.00 0.00 0.00 0.00 0.00 0.00 0.00 0.00 0.00 0.00 0.00 0.00 0.00 0.00 0.00 0.00 nan nan nan 0.00 0.00 0.00 0.00 0.00 0.00 0.00 0.00 0.00 0.00 0.03 0.05 0.03 0.03 0.02 0.02 0.03 0.04 0.02 0.01 0.02 0.03 0.28 0.46
0.01 0.00 0.00 0.00 0.00 0.00 0.00 0.00 0.00 0.00 0.00 0.00 0.00 0.00 0.00 0.00 nan nan 0.00 0.00 0.00 0.00 0.00 0.00 0.00 0.00 nan nan 0.01 0.09 0.25 0.33 nan nan nan nan nan nan nan 0.13 0.28 0.31 0.71
0.15 0.04 0.01 0.00 0.00 0.00 0.00 0.00 0.00 0.00 0.00 0.00 0.00 0.00 nan 0.00 nan nan nan 0.01 0.02 0.11 0.04 0.04 nan 0.00 nan nan 0.02 0.04 0.13 0.25 0.26 0.24 0.25 0.25 nan nan nan 0.13 0.20 0.42 0.70
0.57 0.19 0.11 0.04 0.02 0.01 0.00 0.00 0.00 0.00 0.00 0.00 0.01 0.01 0.00 0.00 0.00 nan nan 0.03 0.12 0.17 0.22 0.25 0.25 nan nan nan nan 0.08 0.31 0.60 0.79 0.62 0.53 0.54 0.51 0.47 0.51 0.53 0.50 0.46 0.73
1.15 0.94 0.61 0.59 0.35 0.09 0.12 0.15 0.03 0.02 0.05 0.16 0.29 0.34 0.38 0.10 nan nan nan nan nan 0.31 0.93 0.92 1.02 nan nan nan 0.89 nan nan 0.80 1.24 1.27 1.20 1.17 1.11 1.02 0.76 0.63 0.59 0.60 0.47
0.93 1.25 1.33 1.15 1.41 0.78 0.64 0.63 0.68 0.38 0.49 0.62 0.87 1.05 1.08 0.89 0.98 nan nan nan nan 1.02 1.25 1.63 nan nan nan 0.55 nan nan 1.27 1.68 1.92 2.12 1.78 1.47 1.06 0.69 0.42 0.38 0.25 0.19 0.23
0.61 0.63 0.92 1.22 1.34 1.53 1.54 1.44 1.28 1.28 1.38 1.63 1.63 1.85 1.64 1.76 1.17 1.21 1.61 1.89 nan 2.08 1.03 2.61 1.45 1.82 1.30 1.64 1.99 1.99 1.69 1.75 1.64 1.32 0.93 0.66 0.49 0.42 0.44 0.35 0.55 0.42 0.50
0.26 0.28 0.31 0.49 0.87 1.22 1.73 2.20 2.24 2.43 2.22 2.26 2.14 2.09 2.66 2.97 3.02 2.85 2.40 2.48 2.49 1.90 2.10 2.46 2.14 1.75 1.52 1.19 1.08 0.96 0.73 0.61 0.72 0.75 0.70 0.50 0.43 0.39 0.47 0.32 0.34 0.33 0.55
0.12 0.21 0.37 0.35 0.56 0.80 1.14 1.48 nan nan nan nan nan 2.31 3.93 nan nan nan nan nan nan nan 1.64 1.55 1.93 1.84 1.22 0.90 0.88 0.78 0.69 0.75 0.62 0.63 0.79 0.56 0.60 0.70 0.64 0.61 0.57 0.63 0.63
0.37 0.34 0.55 0.52 0.71 0.81 0.91 1.09 1.78 2.64 nan nan nan nan nan nan nan nan nan nan nan nan 2.10 1.91 2.26 2.30 1.48 0.78 0.75 0.76 0.86 0.83 0.55 0.85 0.94 1.10 1.13 0.95 1.00 0.77 0.83 0.64 0.55
1.24 0.42 1.39 1.71 1.80 1.99 2.08 2.26 2.11 2.22 2.41 2.23 nan nan nan nan nan nan nan nan 1.72 nan 1.43 1.62 1.88 1.66 1.12 0.94 0.99 0.87 0.80 1.03 1.04 0.87 1.05 1.29 1.45 1.01 0.99 0.67 0.60 0.88 0.51
0.61 0.95 1.05 1.09 1.02 0.91 0.95 1.01 1.04 1.07 1.26 1.33 1.13 0.87 1.13 nan nan nan nan 0.99 1.19 1.07 1.06 1.03 1.24 0.95 0.94 0.78 1.50 1.56 1.82 1.59 1.58 2.00 1.16 1.22 2.66 0.72 0.82 0.59 0.63 0.62 0.57
0.57 0.57 0.57 0.76 0.78 0.77 0.69 0.72 0.62 0.66 0.60 0.72 0.72 0.91 0.62 0.48 1.50 2.46 1.66 2.50 1.75 0.87 0.91 0.63 0.65 0.65 0.89 0.76 1.55 2.43 2.11 2.02 1.39 1.06 2.03 3.05 2.74 1.13 1.03 0.89 1.11 1.06 0.38
0.64 0.63 0.38 0.49 0.51 0.48 0.59 0.59 0.50 0.64 0.72 0.59 1.00 1.54 0.72 0.60 1.08 1.08 0.90 1.24 0.94 0.80 1.29 0.60 0.85 1.07 0.95 1.14 0.61 1.27 0.58 2.78 1.03 1.01 0.94 0.99 5.17 1.49 0.74 0.79 0.91 0.65 0.45
0.41 0.41 0.43 0.60 0.49 0.75 0.56 0.43 0.60 0.52 0.50 0.61 0.84 0.79 1.40 1.39 0.84 0.84 0.78 1.40 2.40 0.91 0.74 0.98 0.77 0.68 0.69 0.78 0.87 2.68 1.81 2.46 2.00 1.45 1.19 1.13 0.92 1.03 0.86 0.91 1.07 1.11 0.73
0.48 0.82 0.53 0.38 0.46 1.85 1.11 0.51 0.86 1.11 0.87 1.16 0.71 0.74 0.79 1.33 1.36 0.86 1.19 2.16 1.01 1.31 1.14 0.94 1.81 0.97 1.03 1.40 1.41 1.03 1.38 1.17 1.29 1.57 1.74 1.67 0.93 1.05 1.73 1.21 0.98 1.14 1.14
0.55 1.10 0.59 1.06 1.30 0.64 1.54 2.16 1.36 2.27 1.13 1.42 2.54 1.92 1.50 1.52 3.07 2.33 2.48 3.18 1.91 2.65 2.59 2.52 0.97 0.76 0.78 2.55 1.66 1.31 0.82 1.45 1.12 1.13 1.38 1.61 1.10 1.05 1.36 1.08 1.05 1.12 1.26
1.19 1.71 1.76 1.14 1.16 2.33 3.02 2.27 2.18 2.55 2.35 2.81 3.19 2.43 0.85 1.85 1.37 3.53 2.78 1.96 1.66 2.73 1.42 1.83 1.54 1.08 1.22 0.96 0.85 0.45 0.85 1.53 1.55 1.75 1.33 0.97 1.22 1.12 1.16 1.12 1.47 1.07 1.10
0.77 0.90 1.27 1.25 1.41 2.20 2.24 3.21 3.24 2.80 2.69 3.12 3.14 3.24 2.33 1.60 1.47 2.95 2.00 1.84 1.56 1.47 1.36 1.50 1.36 1.06 0.94 0.97 0.65 1.72 1.78 1.65 1.75 1.75 1.94 1.10 1.42 1.37 1.35 1.20 1.06 1.33 0.83
SL_Ratio
nan nan nan nan nan nan nan nan nan nan nan nan nan nan nan nan nan nan nan nan nan nan nan nan nan nan nan nan nan nan nan nan nan nan nan nan nan nan nan nan nan nan nan
nan nan nan nan nan nan nan nan nan nan nan nan nan nan nan nan nan nan nan nan nan nan nan nan nan nan nan nan nan nan nan nan nan nan nan nan nan nan nan nan nan nan nan
nan nan nan nan nan nan nan nan nan nan nan nan nan nan nan nan nan nan nan nan nan nan nan nan nan nan nan nan nan nan nan nan nan nan nan nan nan nan nan nan nan nan nan
2.5 nan nan nan nan nan nan nan nan nan nan nan nan nan nan nan nan nan nan nan nan nan nan nan nan nan nan nan nan nan nan nan nan nan nan nan nan nan nan nan nan nan nan
nan nan nan nan nan nan nan nan nan nan nan nan nan nan nan nan nan nan nan nan nan nan nan nan nan nan nan nan nan nan nan nan nan nan nan nan nan nan nan nan nan nan nan
nan nan nan nan nan nan nan nan nan nan nan nan nan nan nan nan nan nan nan nan nan nan nan nan nan nan nan nan nan nan nan nan nan nan nan nan nan nan nan nan nan 0.0 2.7
nan nan nan nan nan nan nan nan nan nan nan nan nan nan nan nan nan nan nan nan nan nan nan nan nan nan nan nan nan nan nan nan nan nan nan nan 2.5 2.1 2.8 2.5 2.9 3.2 4.2
nan nan nan nan nan nan nan nan nan nan nan nan nan nan nan nan nan nan nan nan nan nan nan nan nan nan nan nan 3.3 2.8 3.4 3.2 3.1 2.5 2.5 2.5 2.9 3.4 3.7 3.6 3.9 5.5 5.5
4.5 5.0 nan nan nan nan nan nan nan nan nan nan nan nan nan nan nan nan nan nan nan nan nan nan nan nan nan nan 2.7 3.1 4.0 4.4 nan nan nan nan nan nan nan 3.1 3.9 3.9 5.3
5.4 5.2 5.0 nan nan nan nan nan nan nan nan nan nan nan nan nan nan nan nan 2.4 3.0 2.9 3.3 3.2 nan 0.0 nan nan 2.8 3.1 5.1 5.7 5.3 5.0 5.0 5.2 nan nan nan 5.1 4.1 4.8 6.2
3.8 4.9 5.4 5.3 5.4 5.3 3.3 5.0 nan nan nan 2.7 2.8 3.8 nan 0.0 nan nan nan 2.5 2.8 3.1 3.4 3.8 3.4 nan nan nan nan 3.8 4.4 4.6 5.6 5.6 6.2 6.5 6.5 6.7 6.9 6.5 6.4 5.2 5.9
3.3 4.1 5.2 5.2 5.4 5.5 5.7 5.7 5.2 5.5 5.5 5.2 5.0 4.8 4.3 3.8 nan nan nan nan nan 3.8 5.0 4.8 4.1 nan nan nan 5.0 nan nan 3.8 5.1 5.7 6.3 7.3 7.8 8.2 8.6 8.2 8.2 7.2 6.9
4.4 4.9 4.7 4.9 4.9 5.2 5.9 6.0 6.2 6.4 5.8 6.3 6.1 6.1 5.9 4.8 4.6 nan nan nan nan 4.6 4.5 4.9 nan nan nan 3.0 nan nan 3.0 5.7 6.2 6.9 7.7 8.3 8.4 8.6 9.0 8.3 8.2 7.9 7.8
4.9 5.5 5.4 5.8 5.3 4.9 4.5 5.2 5.7 6.3 6.3 5.8 5.9 6.4 6.3 6.2 6.2 5.7 5.4 5.0 nan 4.8 3.6 4.5 3.0 4.5 3.0 3.8 4.6 5.6 6.0 6.0 6.4 7.2 8.1 8.5 8.2 7.1 6.9 6.4 6.1 6.1 6.4
5.6 6.2 7.0 6.4 6.7 6.1 5.3 5.2 4.8 4.6 5.4 6.1 6.0 5.9 5.9 6.0 5.6 4.8 4.7 4.6 4.6 4.6 4.1 5.2 5.5 5.9 6.5 7.1 7.4 7.4 7.2 6.7 6.5 6.3 6.4 6.5 6.3 5.9 5.8 4.9 5.2 5.3 5.4
6.5 6.4 6.1 6.2 6.7 6.8 6.6 6.4 nan nan nan nan nan 4.2 4.4 nan nan nan nan nan nan nan 5.7 6.5 6.7 6.6 7.4 7.8 7.3 7.1 6.6 5.8 6.2 5.5 5.4 5.5 5.9 5.8 5.9 5.6 5.9 6.1 6.3
5.5 5.0 4.7 5.1 5.8 6.5 7.0 7.2 7.6 6.5 nan nan nan nan nan nan nan nan nan nan nan nan 6.6 7.1 7.3 7.1 6.9 6.5 6.7 6.5 6.6 6.1 6.6 6.1 6.2 6.3 6.2 6.2 6.0 6.2 6.1 6.1 6.0
5.5 3.0 4.4 4.6 4.8 5.1 5.5 6.1 6.5 7.1 7.4 7.8 nan nan nan nan nan nan nan nan 7.5 nan 7.5 7.6 7.0 6.6 7.0 7.6 7.4 7.3 7.2 6.7 6.5 6.6 6.2 6.3 6.3 6.4 6.1 6.2 6.1 6.5 6.0
5.0 5.6 5.7 5.9 5.7 5.6 5.5 6.0 6.4 6.8 7.8 8.6 8.4 5.9 4.6 nan nan nan nan 7.6 8.7 9.1 9.1 9.2 8.1 8.5 8.3 8.3 7.4 7.4 7.3 7.1 6.9 6.7 6.4 6.3 5.8 6.1 6.0 5.8 6.0 4.5 4.4
5.9 3.5 5.0 5.7 5.8 5.6 5.7 5.8 6.3 6.6 6.9 7.3 7.9 8.3 8.1 6.5 6.9 6.9 7.2 7.0 8.0 8.9 8.6 9.3 8.8 8.2 7.8 7.8 7.2 6.9 6.7 6.6 6.8 6.6 6.6 6.0 5.8 6.0 6.7 6.6 6.3 6.0 5.6
6.7 6.5 3.0 5.9 5.9 5.8 5.7 6.0 6.4 6.4 6.7 6.8 7.0 6.2 3.0 6.8 7.2 7.5 8.2 7.8 8.6 8.5 8.0 8.5 8.0 7.4 7.2 6.9 7.0 7.3 7.1 6.4 7.1 6.9 6.8 6.7 5.7 7.3 6.1 5.9 6.0 5.8 6.1
6.3 6.2 5.6 5.9 5.7 5.7 5.8 5.4 5.9 5.8 5.7 6.4 6.5 6.2 3.0 6.9 7.4 7.5 7.6 7.1 6.5 7.7 8.0 7.4 7.8 8.0 7.7 7.4 7.3 6.7 7.3 7.1 6.8 6.8 6.9 7.4 6.5 6.1 6.3 6.3 6.7 6.7 6.3
5.5 4.9 5.3 6.3 5.8 3.2 5.7 5.5 6.2 6.0 5.9 6.1 6.2 6.7 6.7 6.8 7.0 7.7 7.3 6.5 7.1 7.0 7.0 7.2 6.8 7.5 7.1 7.1 6.8 6.9 8.0 7.9 7.5 7.0 7.1 6.6 6.5 6.5 6.5 6.5 6.4 7.3 8.5
5.1 4.9 5.3 5.0 5.2 5.2 5.8 5.9 6.3 3.1 6.5 6.2 6.0 6.3 6.4 6.5 6.1 6.2 6.2 5.7 6.1 6.1 6.3 6.5 7.3 7.6 7.6 6.7 7.2 7.2 7.4 7.5 7.0 7.7 7.2 7.7 6.7 4.9 6.3 6.6 6.3 8.3 8.6
4.7 4.8 4.9 5.2 5.3 5.3 5.4 5.8 6.2 5.6 5.7 5.6 5.9 6.0 6.3 5.9 6.3 5.6 6.1 6.3 6.6 6.2 6.6 6.3 6.7 7.1 7.3 7.9 8.4 8.6 6.5 3.0 6.1 3.0 8.3 7.9 7.4 7.9 8.2 8.1 7.7 7.1 8.0
4.6 4.5 5.1 5.3 5.4 5.2 5.7 5.9 6.2 6.2 6.3 5.9 5.7 5.7 5.9 6.1 6.0 5.7 6.2 6.6 6.9 6.9 6.7 6.6 6.4 7.3 7.5 7.6 8.2 3.3 3.0 3.0 7.9 3.0 8.2 7.8 8.1 7.7 7.6 7.7 7.5 8.2 8.2